User: anonymous   Login
Location: Unspecified
(48.1170°N, 0.0000°E)
Time: 02:31:24
(UTC+00:00)
Language:

MOZHAYETS 4 - Orbit

View from above orbital plane
View from above orbital plane
View from above satellite
View from above satellite

Ground track
Ground track

The orbit data is extracted from the following two-line orbital elements,

1 27939U 03042A   19296.72635752  .00000052  00000-0  17881-4 0  9999
2 27939  98.0587  70.2024 0013486  30.3685 329.8305 14.66810748859165
Epoch (UTC): 23 October 2019 17:25:57
Eccentricity: 0.0013486
inclination: 98.0587°
perigee height: 662 km
apogee height: 681 km
right ascension of ascending node: 70.2024°
argument of perigee: 30.3685°
revolutions per day: 14.66810748
mean anomaly at epoch: 329.8305°
orbit number at epoch: 85916

The dashed part of the orbit path shows where the satellite is in the earth's shadow,  

DLR